sat.trackr.live / text

‹ back to catalog

PRETTY

NORAD 58023 · 2023-155H

PAYLOAD ACTIVE UNKNOWN

§ Identity

Operator
Country
ASRA
Launch date
2023-10-09
Launch site
FRGUI
Launch vehicle
Mass (kg)
RCS (m²)

External: N2YO · Heavens-Above · Gunter

§ Orbital elements

Epoch: 2026-05-25T04:49:09.933024Z

Period
94.51 min
Inclination
97.5689°
Eccentricity
0.0003350
Mean motion
15.23587425 rev/d
Perigee alt
492.7 km
Apogee alt
497.3 km
Semi-major
6,873.2 km
B*
2.1418e-4
RAAN
226.5890°
Arg perigee
104.2383°
Mean anomaly
255.9226°
Rev number
14,485

§ Raw data

PRETTY1 58023U 23155H   26145.20080941  .00005052  00000+0  21418-3 0  99962 58023  97.5689 226.5890 0003350 104.2383 255.9226 15.23587425144853

JSON: /api/v1/satellites/58023 · /tle

For live sub-satellite position, see the globe view (requires WebGL).

§ Visibility from observer

Set your observer location to see the next 7 days of passes ≥ 10°. The values pass through the URL so the page stays shareable.

No JS? Fill the form by hand. The geolocation button needs JavaScript.

§ Radio — SatNOGS DB

ModeDescriptionDownlinkUplink
FM Mode S 2.244 GHz
GFSK Mode V - TLM 137.740 MHz
BPSK S-band telemetry 2.250 GHz

3 transmitters · refreshed weekly from db.satnogs.org